• In Hungary
  • List of Countries
  • For 7 days
  • Water Temperature
  • Satellite Maps
  • Weather Map
  • News
  • Weather Widgets
  • user-avatar
    Login

    Hourly Weather Giumri

    Today, 21 October, Sunday

    Time Temperature Precipitation Wind Pressure Humidity
    00:00 +11°C° 0.4 mm 1 mps 634 mmHg 79%
    01:00 +10°C° 0.2 mm 1 mps 634 mmHg 80%
    02:00 +10°C° 0.2 mm 1 mps 634 mmHg 81%
    03:00 +10°C° 0.2 mm 1 mps 634 mmHg 82%
    04:00 +9°C° 0.1 mm 1 mps 633 mmHg 83%
    05:00 +9°C° 0.1 mm 1 mps 633 mmHg 84%
    06:00 +9°C° 0.1 mm 1 mps 633 mmHg 85%
    07:00 +10°C° 0 mm 1 mps 634 mmHg 79%
    08:00 +12°C° 0 mm 2 mps 634 mmHg 73%
    09:00 +13°C° 0 mm 2 mps 635 mmHg 66%
    10:00 +15°C° 0 mm 2 mps 635 mmHg 61%
    11:00 +16°C° 0 mm 3 mps 635 mmHg 56%
    12:00 +17°C° 0 mm 3 mps 636 mmHg 51%
    13:00 +17°C° 0 mm 3 mps 635 mmHg 50%
    14:00 +17°C° 0 mm 3 mps 635 mmHg 49%
    15:00 +18°C° 0 mm 3 mps 635 mmHg 48%
    16:00 +16°C° 0.1 mm 3 mps 634 mmHg 54%
    17:00 +15°C° 0.1 mm 2 mps 634 mmHg 59%
    18:00 +13°C° 0.1 mm 2 mps 634 mmHg 65%
    19:00 +13°C° 0.1 mm 1 mps 634 mmHg 66%
    20:00 +12°C° 0.1 mm 1 mps 634 mmHg 68%
    21:00 +12°C° 0.1 mm 1 mps 634 mmHg 69%
    22:00 +11°C° 0.1 mm 1 mps 634 mmHg 70%
    23:00 +11°C° 0.1 mm 1 mps 634 mmHg 71%

    Tomorrow, 22 October, Monday

    Time Temperature Precipitation Wind Pressure Humidity
    00:00 +11°C° 0.1 mm 1 mps 634 mmHg 72%
    01:00 +10°C° 0 mm 1 mps 634 mmHg 72%
    02:00 +10°C° 0 mm 1 mps 634 mmHg 72%
    03:00 +10°C° 0 mm 1 mps 634 mmHg 72%
    04:00 +10°C° 0.2 mm 1 mps 634 mmHg 72%
    05:00 +10°C° 0.2 mm 1 mps 634 mmHg 72%
    06:00 +10°C° 0.2 mm 1 mps 634 mmHg 72%
    07:00 +10°C° 0.3 mm 2 mps 635 mmHg 69%
    08:00 +12°C° 0.3 mm 2 mps 635 mmHg 66%
    09:00 +12°C° 0.3 mm 3 mps 636 mmHg 63%
    10:00 +14°C° 0 mm 2 mps 636 mmHg 60%
    11:00 +15°C° 0 mm 2 mps 636 mmHg 58%
    12:00 +16°C° 0 mm 2 mps 636 mmHg 55%
    13:00 +16°C° 0.1 mm 2 mps 636 mmHg 54%
    14:00 +17°C° 0.1 mm 2 mps 636 mmHg 54%
    15:00 +17°C° 0.1 mm 2 mps 636 mmHg 53%
    16:00 +15°C° 0.1 mm 1 mps 635 mmHg 58%
    17:00 +14°C° 0.1 mm 1 mps 635 mmHg 63%
    18:00 +13°C° 0.1 mm 1 mps 635 mmHg 69%
    19:00 +12°C° 0.2 mm 1 mps 635 mmHg 71%
    20:00 +12°C° 0.2 mm 1 mps 635 mmHg 73%
    21:00 +10°C° 0.2 mm 0 mps 635 mmHg 75%
    22:00 +11°C° 0.3 mm 1 mps 635 mmHg 76%
    23:00 +11°C° 0.3 mm 1 mps 635 mmHg 76%

    Day after tomorrow, 23 October, Tuesday

    Time Temperature Precipitation Wind Pressure Humidity
    00:00 +11°C° 0.3 mm 1 mps 635 mmHg 77%
    01:00 +10°C° 0.2 mm 1 mps 635 mmHg 78%
    02:00 +10°C° 0.2 mm 1 mps 635 mmHg 79%
    03:00 +10°C° 0.2 mm 1 mps 634 mmHg 80%
    04:00 +9°C° 0.1 mm 1 mps 634 mmHg 81%
    05:00 +9°C° 0.1 mm 1 mps 634 mmHg 82%
    06:00 +9°C° 0.1 mm 1 mps 634 mmHg 83%
    07:00 +10°C° 0 mm 1 mps 635 mmHg 78%
    08:00 +12°C° 0 mm 2 mps 635 mmHg 73%
    09:00 +13°C° 0 mm 2 mps 636 mmHg 69%
    10:00 +14°C° 0 mm 2 mps 636 mmHg 64%
    11:00 +14°C° 0 mm 3 mps 636 mmHg 59%
    12:00 +16°C° 0 mm 3 mps 636 mmHg 54%
    13:00 +16°C° 0.2 mm 3 mps 635 mmHg 53%
    14:00 +17°C° 0.2 mm 3 mps 635 mmHg 52%
    15:00 +17°C° 0.2 mm 3 mps 635 mmHg 50%
    16:00 +14°C° 0.2 mm 3 mps 634 mmHg 55%
    17:00 +14°C° 0.2 mm 2 mps 634 mmHg 60%
    18:00 +13°C° 0.2 mm 1 mps 634 mmHg 65%
    19:00 +13°C° 0.1 mm 1 mps 634 mmHg 66%
    20:00 +12°C° 0.1 mm 1 mps 634 mmHg 68%
    21:00 +12°C° 0.1 mm 1 mps 634 mmHg 69%
    22:00 +12°C° 0.1 mm 1 mps 634 mmHg 70%
    23:00 +11°C° 0.1 mm 1 mps 633 mmHg 70%

    24 October, Wednesday

    Time Temperature Precipitation Wind Pressure Humidity
    00:00 +11°C° 0.1 mm 1 mps 633 mmHg 70%
    01:00 +11°C° 0.1 mm 1 mps 633 mmHg 72%
    02:00 +10°C° 0.1 mm 1 mps 633 mmHg 75%
    03:00 +10°C° 0.1 mm 1 mps 632 mmHg 77%
    04:00 +8°C° 0.1 mm 2 mps 632 mmHg 78%
    05:00 +8°C° 0.1 mm 2 mps 632 mmHg 80%
    06:00 +8°C° 0.1 mm 2 mps 632 mmHg 82%
    07:00 +9°C° 0.1 mm 2 mps 632 mmHg 79%
    08:00 +10°C° 0.1 mm 3 mps 632 mmHg 75%
    09:00 +11°C° 0.1 mm 3 mps 632 mmHg 71%
    10:00 +12°C° 0.1 mm 4 mps 632 mmHg 68%
    11:00 +13°C° 0.1 mm 4 mps 632 mmHg 65%
    12:00 +14°C° 0.1 mm 4 mps 632 mmHg 62%
    13:00 +14°C° 0.6 mm 5 mps 631 mmHg 63%
    14:00 +14°C° 0.6 mm 5 mps 631 mmHg 63%
    15:00 +14°C° 0.6 mm 5 mps 630 mmHg 64%
    16:00 +13°C° 0.8 mm 4 mps 630 mmHg 69%
    17:00 +12°C° 0.8 mm 4 mps 630 mmHg 74%
    18:00 +11°C° 0.8 mm 3 mps 629 mmHg 78%
    19:00 +11°C° 0.7 mm 3 mps 629 mmHg 81%
    20:00 +10°C° 0.7 mm 3 mps 629 mmHg 84%
    21:00 +10°C° 0.7 mm 3 mps 629 mmHg 87%
    22:00 +10°C° 2.4 mm 3 mps 629 mmHg 88%
    23:00 +10°C° 2.4 mm 3 mps 628 mmHg 90%

    25 October, Thursday

    Time Temperature Precipitation Wind Pressure Humidity
    00:00 +10°C° 2.4 mm 3 mps 628 mmHg 92%
    01:00 +9°C° 1.2 mm 3 mps 628 mmHg 92%
    02:00 +9°C° 1.2 mm 3 mps 628 mmHg 92%
    03:00 +9°C° 1.2 mm 3 mps 628 mmHg 92%
    04:00 +9°C° 0.2 mm 3 mps 627 mmHg 92%
    05:00 +9°C° 0.2 mm 3 mps 627 mmHg 92%
    06:00 +8°C° 0.2 mm 4 mps 627 mmHg 92%
    07:00 +10°C° 0.6 mm 4 mps 627 mmHg 88%
    08:00 +9°C° 0.6 mm 5 mps 627 mmHg 85%
    09:00 +10°C° 0.6 mm 5 mps 627 mmHg 81%
    10:00 +11°C° 0.3 mm 6 mps 627 mmHg 75%
    11:00 +12°C° 0.3 mm 7 mps 627 mmHg 69%
    12:00 +13°C° 0.3 mm 8 mps 627 mmHg 63%
    13:00 +13°C° 0.6 mm 8 mps 626 mmHg 62%
    14:00 +13°C° 0.6 mm 8 mps 626 mmHg 62%
    15:00 +13°C° 0.6 mm 8 mps 625 mmHg 62%
    16:00 +12°C° 0.7 mm 7 mps 625 mmHg 68%
    17:00 +11°C° 0.7 mm 6 mps 625 mmHg 73%
    18:00 +12°C° 0.7 mm 5 mps 625 mmHg 79%
    19:00 +10°C° 0.5 mm 5 mps 625 mmHg 81%
    20:00 +10°C° 0.5 mm 5 mps 625 mmHg 84%
    21:00 +11°C° 0.5 mm 4 mps 625 mmHg 86%
    22:00 +9°C° 0.3 mm 5 mps 625 mmHg 87%
    23:00 +9°C° 0.3 mm 5 mps 625 mmHg 87%

    26 October, Friday

    Time Temperature Precipitation Wind Pressure Humidity
    00:00 +9°C° 0.3 mm 6 mps 625 mmHg 88%
    01:00 +9°C° 0.2 mm 6 mps 625 mmHg 89%
    02:00 +9°C° 0.2 mm 5 mps 625 mmHg 89%
    03:00 +9°C° 0.2 mm 5 mps 625 mmHg 90%
    04:00 +8°C° 0.9 mm 5 mps 625 mmHg 90%
    05:00 +8°C° 0.9 mm 5 mps 625 mmHg 90%
    06:00 +8°C° 0.9 mm 5 mps 625 mmHg 90%
    07:00 +9°C° 1.8 mm 6 mps 626 mmHg 87%
    08:00 +9°C° 1.8 mm 6 mps 626 mmHg 84%
    09:00 +9°C° 1.8 mm 6 mps 626 mmHg 81%
    10:00 +9°C° 1.6 mm 5 mps 627 mmHg 80%
    11:00 +9°C° 1.6 mm 5 mps 627 mmHg 80%
    12:00 +10°C° 1.6 mm 4 mps 627 mmHg 80%
    13:00 +10°C° 0.9 mm 4 mps 627 mmHg 78%
    14:00 +10°C° 0.9 mm 4 mps 627 mmHg 76%
    15:00 +10°C° 0.9 mm 4 mps 627 mmHg 74%
    16:00 +9°C° 1.1 mm 3 mps 628 mmHg 78%
    17:00 +8°C° 1.1 mm 3 mps 628 mmHg 82%
    18:00 +7°C° 1.1 mm 3 mps 628 mmHg 86%
    19:00 +5°C° 1.8 mm 3 mps 628 mmHg 87%
    20:00 +4°C° 1.8 mm 3 mps 629 mmHg 89%
    21:00 +3°C° 1.8 mm 3 mps 629 mmHg 90%
    22:00 +3°C° 1.5 mm 3 mps 629 mmHg 90%
    23:00 +3°C° 1.5 mm 3 mps 630 mmHg 91%
    Show more